Regional Weather Roundup
Issued by NWS

Home | Current Version | Previous Version | Graphics & Text | Print | Product List | Glossary On
Versions: 1 2 3 4 5 6 7 8 9 10 11 12 13 14 15 16 17 18 19 20 21 22 23 24 25 26 27 28 29 30 31 32 33 34 35 36 37 38 39 40 41 42 43 44 45 46 47 48 49 50
000
ASUS43 KDTX 242310
RWRMI
MICHIGAN HOURLY REGIONAL WEATHER ROUNDUP
NATIONAL WEATHER SERVICE DETROIT/PONTIAC MI
700 PM EDT SAT JUN 24 2017

NOTE: "FAIR" INDICATES FEW OR NO CLOUDS BELOW 12,000 FEET WITH NO
SIGNIFICANT WEATHER AND/OR OBSTRUCTION TO VISIBILITY.

MIZ047>049-052>055-059>063-066>070-074>076-081>083-250000-
SOUTHEAST LOWER MICHIGAN

CITY           SKY/WX    TMP DP  RH WIND       PRES   REMARKS
ADRIAN         MOSUNNY   74  49  41 NW12      29.96R
ALMA           MOSUNNY   70  47  44 W17G24    29.93R
ANN ARBOR      MOSUNNY   72  48  42 W14       29.93R
BAD AXE        PTSUNNY   65  55  70 W10       29.90R
CARO           CLOUDY    64  56  78 W9        29.91F
DETROIT CITY   MOSUNNY   75  47  36 W15G26    29.90R
DETROIT        PTSUNNY   76  49  38 W18G28    29.92R
FLINT          MOSUNNY   70  52  52 W12       29.91S
GROSSE ILE     MOSUNNY   76  49  38 W14G22    29.91R
HILLSDALE      MOSUNNY   70  48  46 W16G22    29.96S
HOWELL         MOSUNNY   70  46  42 W16G23    29.94R

CITY           SKY/WX    TMP DP  RH WIND       PRES   REMARKS
JACKSON        MOSUNNY   70  50  49 W12       29.96R
LAMBERTVILLE   SUNNY     74  48  39 NW8G17    29.93R
LANSING        MOSUNNY   73  46  38 W18G26    29.95S
LAPEER         FAIR      69  54  59 NW13G18   29.92R
MASON          MOSUNNY   71  48  44 W14G24    29.95R
MONROE         MOSUNNY   74  50  42 W14G23    29.92R
MT. CLEMENS    PTSUNNY   74  49  40 W16G24    29.87R
PONTIAC        MOSUNNY   72  50  45 W20       29.91R
PORT HOPE        N/A     69  53  56 W6        29.87R
PORT HURON     MOSUNNY   70  52  52 NW12      29.90R
TRI CITIES     MOSUNNY   67  57  70 NE7       29.91F
MIDLAND        CLOUDY    63  58  82 CALM      29.91S
TROY           MOSUNNY   76  43  30 W12G28    29.93R
SAGINAW HB     PTSUNNY   61  54  77 CALM      29.91F
$$
MIZ043>046-050>051-056>058-064>065-071>073-077>080-250000-
SOUTHWEST LOWER MICHIGAN

CITY           SKY/WX    TMP DP  RH WIND       PRES   REMARKS
BATTLE CREEK   MOSUNNY   71  48  43 W21       29.98S
BENTON HARBOR  SUNNY     71  49  45 W8        29.98F
BIG RAPIDS     PTSUNNY   66  43  43 W15G21    29.93R
COLDWATER      MOSUNNY   71  45  39 W18       29.97S
FREMONT        FAIR      68  41  36 W16G22    29.94S
HOLLAND        SUNNY     70  48  45 NW9       29.97S
GRAND RAPIDS   MOSUNNY   70  47  43 W16G25    29.95S
IONIA          FAIR      70  44  40 W20       29.94S
KALAMAZOO      MOSUNNY   72  44  36 W12       29.98R
LUDINGTON      CLOUDY    67  52  59 W7        29.92S
MARSHALL       PTSUNNY   71  48  44 W12G18    29.97R
MOUNT PLEASANT MOSUNNY   69  50  50 W10G16    29.91S
MUSKEGON       MOSUNNY   70  47  43 W9        29.95F
SOUTH HAVEN    SUNNY     69  50  49 W7        29.98S
$$
MIZ016>042-250000-
NORTHERN LOWER MICHIGAN

CITY           SKY/WX    TMP DP  RH WIND       PRES   REMARKS
ALPENA         LGT RAIN  64  55  72 S8        29.87S
BEAVER ISLAND  CLOUDY    61  55  82 NW7       29.90S
BELLAIRE       CLOUDY    64  54  68 W7        29.90S
CADILLAC       MOSUNNY   65  49  55 W14G24    29.91S
CHARLEVOIX     CLOUDY    61  56  82 W13G20    29.93R
FRANKFORT      PTSUNNY   64  53  68 W6        29.92R
GAYLORD        CLOUDY    66  48  52 W9        29.89S
GRAYLING       RAIN      58  56  94 W7        29.93R
HARBOR SPRINGS PTSUNNY   61  56  85 W7        29.89S
HOUGHTON LAKE  CLOUDY    59  56  89 N6        29.92R
MANISTEE       PTSUNNY   66  53  63 W9        29.92S
OSCODA         LGT RAIN  57  51  78 S12       29.88S
PELLSTON       CLOUDY    67  49  52 W13       29.88R
ROGERS CITY    CLOUDY    66  49  53 NW6       29.87R
TRAVERSE CITY  PTSUNNY   65  51  60 W13       29.89R
$$
MIZ007>008-015-250000-
EASTERN UPPER MICHIGAN

CITY           SKY/WX    TMP DP  RH WIND       PRES   REMARKS
KINROSS        CLOUDY    66  48  52 NW10      29.86S
MACKINAC ISLAN MOSUNNY   62  55  76 W12       29.87S
NEWBERRY       MOSUNNY   62  52  71 W10G16    29.87S
S. S. MARIE    SUNNY     66  48  52 NW9       29.86R
MUNISING         N/A     54  52  93 CALM      29.90S
$$
MIZ004>006-011>014-085-250000-
CENTRAL UPPER MICHIGAN

CITY           SKY/WX    TMP DP  RH WIND       PRES   REMARKS
MANISTIQUE     RAIN      57  54  89 NW6       29.89S
ESCANABA       RAIN      55  54  96 NW6       29.90S
MENOMINEE      MOSUNNY   62  53  72 NW8       29.91S
SAWYER-GWINN   LGT RAIN  55  54  94 NW5       29.91S
$$
MIZ001>003-009>011-084-250000-
WESTERN UPPER MICHIGAN

CITY           SKY/WX    TMP DP  RH WIND       PRES   REMARKS
IRON MOUNTAIN  RAIN      54  49  83 NW13      29.92R
HOUGHTON       CLOUDY    54  51  90 W12       29.91R FOG
COPPER HARBOR    N/A     54  52  93 N10       29.89S
IRONWOOD       CLOUDY    57  52  83 W8        29.94S
$$

ABBREVIATIONS USED IN REMARKS
   TC - TEMPERATURE IN CELSIUS
  WCI - WIND CHILL INDEX
   HX - HEAT INDEX
  VSB - VISIBILITY




USA.gov is the U.S. government's official web portal to all federal, state and local government web resources and services.